Location: Vulcan
(50.4000°N, 113.2500°W)
Time: 03:44:41
(UTC-07:00)

A-11 Canister half - All Passes

Search period start: 19 November 2019 00:00
Search period end: 29 November 2019 00:00
Orbit: 1514 x 1686 km, 47.2° (Epoch: 18 November)

Date Brightness Start Highest point End Pass type
(mag) Time Alt. Az. Time Alt. Az. Time Alt. Az.
19 Nov - 01:35:02 10° W 01:42:38 25° SW 01:50:07 10° S night (unlit)
19 Nov - 16:55:24 10° S 17:03:23 28° SE 17:11:28 10° E daylight
19 Nov - 18:57:10 10° SW 19:07:00 59° SSE 19:16:54 10° E visible
19 Nov - 21:01:31 10° W 21:11:40 76° S 21:21:45 10° E visible
19 Nov - 23:06:25 10° W 23:16:18 58° SSW 23:25:59 10° SE visible
20 Nov - 01:11:58 10° W 01:19:49 27° SW 01:27:31 10° S night (unlit)
20 Nov - 16:32:48 10° S 16:40:33 26° SE 16:48:25 10° E daylight
20 Nov - 18:34:19 10° SW 18:44:05 58° SSE 18:53:57 10° E visible
20 Nov - 20:38:34 10° W 20:48:43 76° S 20:58:49 10° E visible
20 Nov - 22:43:28 10° W 22:53:23 60° SSW 23:03:08 10° SE visible
21 Nov - 00:48:55 10° W 00:56:59 28° SW 01:04:55 10° S night (unlit)
21 Nov - 16:10:12 10° S 16:17:43 25° SE 16:25:21 10° E daylight
21 Nov - 18:11:28 10° SW 18:21:11 56° SSE 18:31:01 10° E visible
21 Nov - 20:15:38 10° W 20:25:46 76° S 20:35:54 10° E visible
21 Nov - 22:20:30 10° W 22:30:28 61° SSW 22:40:16 10° SE visible
22 Nov - 00:25:52 10° W 00:34:09 30° SW 00:42:16 10° SSE visible
22 Nov - 15:47:39 10° S 15:54:54 23° SE 16:02:16 10° E daylight
22 Nov - 17:48:37 10° SW 17:58:16 54° SSE 18:08:04 10° E visible
22 Nov - 19:52:41 10° W 20:02:49 75° S 20:12:57 10° E visible
22 Nov - 21:57:33 10° W 22:07:32 63° SSW 22:17:24 10° ESE visible
23 Nov - 00:02:50 10° W 00:11:18 32° SW 00:19:38 10° SSE visible
23 Nov - 15:25:07 10° S 15:32:05 22° SE 15:39:08 10° E daylight
23 Nov - 17:25:48 10° SW 17:35:22 52° SSE 17:45:05 10° E visible
23 Nov - 19:29:46 10° WSW 19:39:52 75° S 19:50:01 10° E visible
23 Nov - 21:34:36 10° W 21:44:37 64° SSW 21:54:31 10° ESE visible
23 Nov - 23:39:50 10° W 23:48:27 33° SW 23:56:57 10° SSE visible
24 Nov - 15:02:37 10° S 15:09:16 21° SE 15:16:01 10° E daylight
24 Nov - 17:02:58 10° SW 17:12:28 51° SSE 17:22:08 10° E visible
24 Nov - 19:06:50 10° WSW 19:16:55 74° S 19:27:04 10° E visible
24 Nov - 21:11:40 10° W 21:21:41 66° SSW 21:31:38 10° ESE visible
24 Nov - 23:16:49 10° W 23:25:36 35° SW 23:34:16 10° SSE visible
25 Nov - 14:40:11 10° SSE 14:46:28 19° SE 14:52:50 10° E daylight
25 Nov - 16:40:10 10° SW 16:49:35 49° SSE 16:59:10 10° E daylight
25 Nov - 18:43:55 10° WSW 18:53:58 74° S 19:04:07 10° E visible
25 Nov - 20:48:42 10° W 20:58:45 67° SSW 21:08:44 10° ESE visible
25 Nov - 22:53:49 10° W 23:02:45 37° SW 23:11:33 10° SSE visible
26 Nov - 01:03:41 10° WSW 01:05:17 10° WSW 01:06:53 10° SW night (unlit)
26 Nov - 14:17:47 10° SSE 14:23:40 18° SE 14:29:38 10° E daylight
26 Nov - 16:17:22 10° SW 16:26:41 47° SSE 16:36:12 10° ENE daylight
26 Nov - 18:21:00 10° WSW 18:31:02 73° S 18:41:11 10° E visible
26 Nov - 20:25:46 10° W 20:35:49 68° SSW 20:45:51 10° ESE visible
26 Nov - 22:30:50 10° W 22:39:53 38° SW 22:48:50 10° SSE visible
27 Nov - 00:39:29 10° WSW 00:42:31 12° WSW 00:45:31 10° SW night (unlit)
27 Nov - 13:55:26 10° SSE 14:00:53 16° SE 14:06:24 10° E daylight
27 Nov - 15:54:36 10° SW 16:03:48 45° SSE 16:13:13 10° ENE daylight
27 Nov - 17:58:05 10° WSW 18:08:05 72° S 18:18:14 10° E visible
27 Nov - 20:02:49 10° W 20:12:53 70° SSW 20:22:56 10° ESE visible
27 Nov - 22:07:50 10° WNW 22:17:01 40° SW 22:26:05 10° SSE visible
28 Nov - 00:15:48 10° W 00:19:44 13° WSW 00:23:38 10° SW visible
28 Nov - 13:33:10 10° SSE 13:38:06 15° SE 13:43:05 10° E daylight
28 Nov - 15:31:50 10° SSW 15:40:56 43° SE 15:50:15 10° ENE daylight
28 Nov - 17:35:11 10° WSW 17:45:09 72° SSE 17:55:16 10° E visible
28 Nov - 19:39:53 10° W 19:49:56 71° SSW 20:00:02 10° ESE visible
28 Nov - 21:44:52 10° WNW 21:54:08 42° SW 22:03:19 10° SSE visible
